Weather History for LTBA - August, 2013

Change the Weather History Date:

Saturday, August 17, 2013

  Actual Average (WUND) Record (WUND)
Temperature  
Mean Temperature 81 °F -  
Max Temperature 85 °F 77 °F - (-1)
Min Temperature 77 °F 64 °F - (-1)
Cooling Degree Days 16    
Growing Degree Days 31 (Base 50)    
Moisture  
Dew Point 65 °F    
Average Humidity 60    
Maximum Humidity 74    
Minimum Humidity 39    
Precipitation  
Precipitation 0.00 in - - ()
Sea Level Pressure  
Sea Level Pressure 29.95 in    
Wind  
Wind Speed 15 mph ()    
Max Wind Speed 25 mph    
Max Gust Speed 37 mph    
Visibility 6.2 miles    
Events      
Averages and records for this station are not official NWS values.
T = Trace of Precipitation, MM = Missing Value Source: Averaged Metar Reports

Daily Weather History Graph

Daily Weather History Graph

Search for Another Location

Airport or City:

Trip Planner

Search our weather history database for the weather conditions in past years. The results will help you decide how hot, cold, wet, or windy it might be!

Date:

Astronomy

Aug. 17, 2013 Rise Set
Actual Time 6:16 AM EEST 8:00 PM EEST
Civil Twilight 5:47 AM EEST 8:29 PM EEST
Nautical Twilight 5:11 AM EEST 9:05 PM EEST
Astronomical Twilight 4:33 AM EEST 9:43 PM EEST
Moon 4:58 PM EEST (8/17) 1:58 AM EEST (8/17)
Length of Visible Light 14h 42m
Length of Day
13h 43m
Waxing Gibbous, 81% of the Moon is Illuminated
Aug 17
Waxing Gibbous
Aug 21
Full
Aug 28
Last Quarter
Sep 5
New
Sep 12
First Quarter

Hourly Weather History & Observations

Time (EEST) Temp. Heat Index Dew Point Humidity Pressure Visibility Wind Dir Wind Speed Gust Speed Precip Events Conditions
12:20 AM 78.8 °F - 68.0 °F 69% 29.95 in 6.2 mi NNE 16.1 mph - N/A   Partly Cloudy
12:50 AM 78.8 °F - 68.0 °F 69% 29.95 in 6.2 mi NNE 15.0 mph - N/A   Partly Cloudy
1:20 AM 80.6 °F 83.9 °F 69.8 °F 70% 29.95 in 6.2 mi NNE 12.7 mph - N/A   Partly Cloudy
1:50 AM 78.8 °F - 68.0 °F 69% 29.95 in 6.2 mi NNE 11.5 mph - N/A   Partly Cloudy
2:20 AM 78.8 °F - 69.8 °F 74% 29.95 in 6.2 mi NNE 12.7 mph - N/A   Partly Cloudy
2:50 AM 77.0 °F - 68.0 °F 74% 29.95 in 6.2 mi NNE 11.5 mph - N/A   Partly Cloudy
3:00 AM 77 °F - 68 °F 67% 29.94 in 6 mi NNE 11.5 mph - -   Scattered Clouds
3:20 AM 77.0 °F - 68.0 °F 74% 29.92 in 6.2 mi NNE 13.8 mph - N/A   Partly Cloudy
3:50 AM 77.0 °F - 68.0 °F 74% 29.92 in 6.2 mi North 15.0 mph - N/A   Partly Cloudy
4:20 AM 77.0 °F - 68.0 °F 74% 29.92 in 6.2 mi NNE 15.0 mph - N/A   Partly Cloudy
4:50 AM 77.0 °F - 68.0 °F 74% 29.92 in 6.2 mi NNE 16.1 mph - N/A   Partly Cloudy
5:20 AM 77.0 °F - 68.0 °F 74% 29.92 in 6.2 mi NNE 15.0 mph - N/A   Partly Cloudy
5:50 AM 77.0 °F - 68.0 °F 74% 29.92 in 6.2 mi NNE 13.8 mph - N/A   Partly Cloudy
6:20 AM 78.8 °F - 68.0 °F 69% 29.92 in 6.2 mi NNE 16.1 mph - N/A   Partly Cloudy
6:50 AM 78.8 °F - 68.0 °F 69% 29.92 in 6.2 mi NNE 13.8 mph - N/A   Partly Cloudy
7:20 AM 78.8 °F - 68.0 °F 69% 29.92 in 6.2 mi NNE 13.8 mph - N/A   Partly Cloudy
7:50 AM 78.8 °F - 68.0 °F 69% 29.92 in 6.2 mi NNE 13.8 mph - N/A   Partly Cloudy
8:20 AM 80.6 °F 83.2 °F 68.0 °F 65% 29.95 in 6.2 mi NNE 16.1 mph - N/A   Partly Cloudy
8:50 AM 80.6 °F 83.2 °F 68.0 °F 65% 29.95 in 6.2 mi NNE 13.8 mph - N/A   Scattered Clouds
9:00 AM 81 °F - 68 °F 56% 29.94 in 6 mi NNE 13.8 mph - -   Partly Cloudy
9:20 AM 82.4 °F 85.4 °F 68.0 °F 62% 29.95 in 6.2 mi NNE 16.1 mph 28.8 mph N/A   Scattered Clouds
9:50 AM 82.4 °F 85.4 °F 68.0 °F 62% 29.95 in 6.2 mi NNE 20.7 mph - N/A   Scattered Clouds
10:20 AM 82.4 °F 85.4 °F 68.0 °F 62% 29.95 in 6.2 mi NNE 23.0 mph - N/A   Scattered Clouds
10:50 AM 84.2 °F 87.3 °F 68.0 °F 58% 29.95 in - NNE 19.6 mph - N/A   Clear
11:20 AM 82.4 °F 84.6 °F 66.2 °F 58% 29.95 in 6.2 mi NNE 21.9 mph 33.4 mph N/A   Scattered Clouds
11:50 AM 84.2 °F 86.6 °F 66.2 °F 55% 29.95 in 6.2 mi NNE 19.6 mph - N/A   Scattered Clouds
12:20 PM 84.2 °F 86.6 °F 66.2 °F 55% 29.95 in 6.2 mi NNE 19.6 mph - N/A   Scattered Clouds
12:50 PM 84.2 °F 86.6 °F 66.2 °F 55% 29.95 in 6.2 mi NNE 23.0 mph - N/A   Scattered Clouds
1:20 PM 84.2 °F 85.6 °F 64.4 °F 51% 29.95 in 6.2 mi NNE 24.2 mph - N/A   Scattered Clouds
1:50 PM 84.2 °F 86.6 °F 66.2 °F 55% 29.95 in 6.2 mi NNE 23.0 mph 34.5 mph N/A   Scattered Clouds
2:20 PM 84.2 °F 85.6 °F 64.4 °F 51% 29.95 in 6.2 mi NNE 23.0 mph 35.7 mph N/A   Scattered Clouds
2:50 PM 84.2 °F 85.0 °F 62.6 °F 48% 29.95 in 6.2 mi NNE 21.9 mph 36.8 mph N/A   Scattered Clouds
3:00 PM 85 °F - 64 °F 39% 29.94 in 6 mi NNE 21.9 mph - -   Partly Cloudy
3:50 PM 86.0 °F 86.6 °F 62.6 °F 45% 29.92 in 6.2 mi NNE 20.7 mph 32.2 mph N/A   Scattered Clouds
4:20 PM 84.2 °F 85.0 °F 62.6 °F 48% 29.95 in 6.2 mi NNE 21.9 mph - N/A   Scattered Clouds
4:50 PM 82.4 °F 83.4 °F 62.6 °F 51% 29.95 in 6.2 mi NNE 25.3 mph 36.8 mph N/A   Scattered Clouds
5:20 PM 82.4 °F 82.9 °F 60.8 °F 48% 29.92 in 6.2 mi NNE 24.2 mph - N/A   Scattered Clouds
5:50 PM 80.6 °F 81.5 °F 60.8 °F 51% 29.95 in 6.2 mi NNE 24.2 mph - N/A   Scattered Clouds
6:20 PM 80.6 °F 81.5 °F 60.8 °F 51% 29.95 in 6.2 mi NNE 25.3 mph - N/A   Scattered Clouds
6:50 PM 80.6 °F 81.5 °F 60.8 °F 51% 29.95 in 6.2 mi NNE 23.0 mph 36.8 mph N/A   Partly Cloudy
7:20 PM 78.8 °F - 60.8 °F 54% 29.95 in - NNE 19.6 mph - N/A   Clear
7:50 PM 78.8 °F - 60.8 °F 54% 29.98 in - NE 16.1 mph - N/A   Clear
8:20 PM 78.8 °F - 60.8 °F 54% 29.98 in - NE 11.5 mph - N/A   Clear
8:50 PM 78.8 °F - 60.8 °F 54% 29.98 in - NNE 13.8 mph - N/A   Clear
9:00 PM 78 °F - 61 °F 46% 29.99 in 6 mi NNE 13.8 mph - -  
9:20 PM 78.8 °F - 60.8 °F 54% 29.98 in - NNE 12.7 mph - N/A   Clear
9:50 PM 77.0 °F - 62.6 °F 61% 29.98 in - NE 11.5 mph - N/A   Clear
10:20 PM 77.0 °F - 62.6 °F 61% 29.98 in - NNE 13.8 mph - N/A   Clear
10:50 PM 77.0 °F - 62.6 °F 61% 29.98 in - NNE 11.5 mph - N/A   Clear
11:20 PM 77.0 °F - 62.6 °F 61% 29.98 in - NNE 11.5 mph - N/A   Clear
11:50 PM 77.0 °F - 62.6 °F 61% 29.98 in - NE 10.4 mph - N/A   Clear